| time (UTC) | temp C | wind direction | speed KPH | gust KPH | rain 1hr cm | rain 24hr cm | rain mn cm | humidity % | barometer mb |
| 20260506114051 | 21 | 4 | 14.5 | 22.5 | 0.00 | 0.00 | 0.00 | 41 | 1004.8 |
| 20260506111051 | 23 | 351 | 14.5 | 19.3 | 0.00 | 0.00 | 0.00 | 40 | 1004.8 |
| 20260506104051 | 21 | 320 | 14.5 | 24.1 | 0.00 | 0.00 | 0.00 | 42 | 1004.9 |
| 20260506101052 | 20 | 12 | 9.7 | 19.3 | 0.00 | 0.00 | 0.00 | 45 | 1004.8 |
| 20260506094052 | 18 | 6 | 14.5 | 27.4 | 0.00 | 0.00 | 0.00 | 47 | 1004.6 |
| 20260506091052 | 18 | 352 | 19.3 | 22.5 | 0.00 | 0.00 | 0.00 | 50 | 1004.5 |
| 20260506084051 | 16 | 4 | 8.0 | 11.3 | 0.00 | 0.00 | 0.00 | 56 | 1004.2 |
| 20260506081051 | 19 | 12 | 12.9 | 17.7 | 0.00 | 0.00 | 0.00 | 53 | 1004.2 |
| 20260506071052 | 13 | 1 | 12.9 | 17.7 | 0.00 | 0.00 | 0.00 | 70 | 1003.8 |
| 20260506061051 | 10 | 0 | 12.9 | 16.1 | 0.00 | 0.00 | 0.00 | 82 | 1003.5 |
| 20260506051051 | 8 | 6 | 8.0 | 9.7 | 0.00 | 0.00 | 0.00 | 84 | 1003.2 |
| 20260506044050 | 8 | 12 | 9.7 | 12.9 | 0.00 | 0.00 | 0.00 | 84 | 1003.1 |
| 20260506041051 | 8 | 8 | 8.0 | 11.3 | 0.00 | 0.00 | 0.00 | 83 | 1003.0 |
| 20260506034051 | 8 | 9 | 11.3 | 12.9 | 0.00 | 0.00 | 0.00 | 82 | 1002.9 |
| 20260506033732 | 8 | 23 | 9.7 | 12.9 | 0.00 | 0.00 | 0.00 | 82 | 1002.9 |
| 20260506030731 | 8 | 7 | 11.3 | 14.5 | 0.00 | 0.00 | 0.00 | 83 | 1002.9 |
| 20260506030416 | 8 | 15 | 8.0 | 27.4 | 0.00 | 0.00 | 0.00 | 83 | 1002.9 |
| 20260506023415 | 8 | 4 | 9.7 | 14.5 | 0.00 | 0.00 | 0.00 | 82 | 1002.7 |
| 20260506020415 | 8 | 11 | 11.3 | 17.7 | 0.00 | 0.00 | 0.00 | 81 | 1002.8 |
| 20260506013414 | 8 | 4 | 8.0 | 17.7 | 0.00 | 0.00 | 0.00 | 81 | 1002.7 |
| 20260506010415 | 8 | 353 | 9.7 | 12.9 | 0.00 | 0.00 | 0.00 | 81 | 1002.8 |
| 20260506003415 | 9 | 10 | 9.7 | 17.7 | 0.00 | 0.00 | 0.00 | 79 | 1002.8 |
| 20260506000416 | 9 | 12 | 11.3 | 12.9 | 0.00 | 0.00 | 0.00 | 79 | 1002.8 |
| 20260505233415 | 10 | 17 | 11.3 | 16.1 | 0.00 | 0.00 | 0.00 | 78 | 1002.9 |
| 20260505230414 | 10 | 8 | 11.3 | 17.7 | 0.00 | 0.00 | 0.00 | 79 | 1003.0 |
| 20260505223415 | 10 | 9 | 12.9 | 12.9 | 0.00 | 0.00 | 0.00 | 80 | 1002.9 |
| 20260505220415 | 10 | 3 | 11.3 | 14.5 | 0.00 | 0.00 | 0.00 | 80 | 1002.9 |
| 20260505213416 | 10 | 11 | 8.0 | 11.3 | 0.00 | 0.00 | 0.00 | 81 | 1002.9 |
| 20260505210415 | 11 | 351 | 8.0 | 9.7 | 0.00 | 0.00 | 0.00 | 80 | 1002.9 |
| 20260505203414 | 11 | 10 | 8.0 | 8.0 | 0.00 | 0.00 | 0.00 | 79 | 1003.0 |
| 20260505200415 | 11 | 22 | 9.7 | 11.3 | 0.00 | 0.00 | 0.00 | 77 | 1002.6 |
| 20260505193416 | 11 | 14 | 11.3 | 14.5 | 0.00 | 0.00 | 0.00 | 77 | 1002.3 |
| 20260505190415 | 11 | 8 | 12.9 | 16.1 | 0.00 | 0.00 | 0.00 | 76 | 1002.1 |
| 20260505183415 | 12 | 352 | 12.9 | 17.7 | 0.00 | 0.00 | 0.00 | 76 | 1001.9 |
| 20260505180415 | 13 | 340 | 12.9 | 14.5 | 0.00 | 0.00 | 0.00 | 75 | 1001.9 |
| 20260505173413 | 13 | 338 | 8.0 | 14.5 | 0.00 | 0.00 | 0.00 | 74 | 1001.9 |
| 20260505170414 | 14 | 347 | 12.9 | 16.1 | 0.00 | 0.00 | 0.00 | 73 | 1002.0 |
| 20260505163415 | 14 | 354 | 16.1 | 16.1 | 0.00 | 0.00 | 0.00 | 74 | 1002.0 |
| 20260505160415 | 15 | 353 | 12.9 | 19.3 | 0.00 | 0.00 | 0.00 | 73 | 1002.1 |
| 20260505123734 | 15 | 347 | 12.9 | 17.7 | 0.00 | 0.00 | 0.00 | 73 | 1002.6 |
| 20260505120733 | 14 | 8 | 9.7 | 14.5 | 0.00 | 0.00 | 0.00 | 76 | 1002.9 |